Precipitable_Water
0.60 0.64 0.66 0.66 0.64 0.62 0.62 0.64 0.62 0.62 0.60 0.62 0.62 0.62 0.64 0.62 0.62 0.62 0.62 0.62 0.62 0.60 0.58 0.58 0.58 0.58 0.60 0.60 0.62 0.62 0.62 0.62 0.62 0.62 0.60 0.60 0.60 0.58 0.58 0.58 0.56 0.54 0.52 0.52 0.50 0.48 0.48 0.48 0.48 0.48 0.50 0.48 0.48 0.50 0.50 0.48 0.48 0.48 0.48 0.48 0.46 0.46 0.46 0.46 0.46 0.44 0.46 0.44 0.44 0.46 0.46 0.46 0.48 0.48 0.48 0.52 0.54 0.56 0.56 0.58 0.58 0.58 0.60 0.60 0.60 0.62
0.58 0.62 0.66 0.64 0.64 0.62 0.62 0.64 0.64 0.64 0.62 0.62 0.62 0.64 0.64 0.62 0.62 0.62 0.62 0.64 0.64 0.62 0.60 0.58 0.58 0.58 0.60 0.60 0.62 0.62 0.62 0.62 0.62 0.62 0.62 0.62 0.62 0.60 0.58 0.58 0.56 0.56 0.54 0.54 0.52 0.50 0.50 0.50 0.50 0.50 0.50 0.50 0.50 0.50 0.50 0.50 0.48 0.48 0.48 0.48 0.46 0.46 0.46 0.46 0.44 0.44 0.44 0.42 0.42 0.44 0.44 0.44 0.44 0.44 0.44 0.48 0.50 0.50 0.50 0.52 0.54 0.54 0.56 0.56 0.58 0.60
0.56 0.60 0.62 0.64 0.64 0.62 0.62 0.64 0.66 0.66 0.64 0.64 0.64 0.66 0.64 0.64 0.62 0.62 0.62 0.64 0.64 0.64 0.62 0.62 0.60 0.60 0.60 0.60 0.60 0.60 0.60 0.62 0.62 0.62 0.64 0.62 0.62 0.60 0.60 0.58 0.56 0.54 0.54 0.54 0.52 0.52 0.52 0.52 0.52 0.52 0.52 0.50 0.50 0.50 0.50 0.50 0.48 0.48 0.48 0.48 0.48 0.48 0.46 0.46 0.44 0.42 0.42 0.42 0.42 0.42 0.42 0.42 0.42 0.44 0.42 0.44 0.44 0.44 0.44 0.46 0.48 0.48 0.50 0.52 0.54 0.58
0.54 0.56 0.60 0.64 0.66 0.64 0.62 0.66 0.66 0.66 0.66 0.66 0.68 0.68 0.68 0.66 0.64 0.62 0.64 0.64 0.64 0.64 0.64 0.64 0.62 0.62 0.60 0.60 0.60 0.60 0.60 0.60 0.62 0.62 0.62 0.62 0.60 0.60 0.60 0.58 0.58 0.56 0.56 0.56 0.54 0.54 0.52 0.52 0.52 0.52 0.52 0.52 0.52 0.52 0.50 0.50 0.50 0.48 0.48 0.48 0.48 0.48 0.46 0.46 0.44 0.42 0.42 0.42 0.42 0.40 0.40 0.40 0.40 0.42 0.40 0.40 0.42 0.42 0.42 0.44 0.44 0.46 0.48 0.50 0.52 0.54
0.54 0.56 0.62 0.64 0.64 0.64 0.64 0.66 0.68 0.68 0.68 0.68 0.70 0.70 0.70 0.68 0.66 0.66 0.66 0.64 0.64 0.64 0.64 0.64 0.64 0.62 0.62 0.60 0.60 0.60 0.60 0.60 0.62 0.62 0.62 0.60 0.58 0.58 0.58 0.58 0.58 0.58 0.58 0.58 0.56 0.54 0.54 0.52 0.52 0.52 0.52 0.52 0.52 0.52 0.52 0.50 0.50 0.50 0.48 0.48 0.48 0.46 0.46 0.44 0.44 0.42 0.42 0.42 0.40 0.40 0.40 0.40 0.40 0.40 0.40 0.40 0.40 0.40 0.38 0.40 0.40 0.42 0.44 0.46 0.48 0.50
0.54 0.56 0.62 0.62 0.64 0.64 0.66 0.66 0.66 0.68 0.68 0.68 0.70 0.70 0.70 0.68 0.68 0.66 0.66 0.64 0.64 0.64 0.64 0.66 0.66 0.66 0.66 0.62 0.60 0.60 0.60 0.60 0.60 0.60 0.60 0.62 0.60 0.60 0.58 0.58 0.58 0.60 0.60 0.60 0.58 0.56 0.54 0.54 0.54 0.52 0.52 0.54 0.54 0.52 0.52 0.52 0.50 0.50 0.48 0.48 0.46 0.46 0.44 0.44 0.44 0.42 0.42 0.42 0.40 0.40 0.40 0.40 0.40 0.40 0.38 0.38 0.38 0.38 0.38 0.38 0.38 0.40 0.40 0.42 0.44 0.44
0.56 0.56 0.60 0.62 0.62 0.64 0.64 0.64 0.66 0.66 0.66 0.66 0.68 0.68 0.70 0.70 0.68 0.68 0.66 0.66 0.64 0.64 0.66 0.68 0.68 0.68 0.68 0.64 0.62 0.62 0.62 0.62 0.64 0.64 0.64 0.62 0.60 0.58 0.58 0.56 0.56 0.58 0.58 0.58 0.58 0.56 0.56 0.54 0.54 0.54 0.54 0.54 0.54 0.54 0.54 0.52 0.50 0.50 0.48 0.48 0.46 0.46 0.44 0.44 0.42 0.42 0.42 0.42 0.42 0.42 0.42 0.42 0.40 0.40 0.40 0.38 0.38 0.38 0.38 0.38 0.38 0.38 0.38 0.40 0.40 0.42
0.56 0.58 0.60 0.60 0.60 0.60 0.62 0.60 0.62 0.64 0.64 0.64 0.64 0.64 0.66 0.68 0.68 0.68 0.68 0.68 0.66 0.66 0.68 0.68 0.68 0.68 0.66 0.64 0.64 0.62 0.62 0.62 0.62 0.62 0.62 0.58 0.56 0.54 0.54 0.54 0.54 0.54 0.56 0.56 0.56 0.56 0.56 0.58 0.58 0.58 0.56 0.56 0.56 0.54 0.54 0.54 0.52 0.50 0.50 0.48 0.48 0.46 0.46 0.44 0.44 0.44 0.44 0.42 0.42 0.44 0.42 0.42 0.42 0.40 0.40 0.40 0.38 0.38 0.38 0.38 0.38 0.38 0.38 0.38 0.38 0.38
0.56 0.58 0.58 0.60 0.58 0.56 0.56 0.56 0.58 0.62 0.64 0.64 0.64 0.64 0.64 0.66 0.66 0.66 0.68 0.68 0.68 0.68 0.68 0.68 0.68 0.66 0.64 0.62 0.62 0.62 0.60 0.60 0.58 0.58 0.58 0.56 0.56 0.54 0.54 0.54 0.54 0.56 0.56 0.56 0.58 0.58 0.58 0.60 0.60 0.60 0.60 0.60 0.58 0.58 0.58 0.56 0.54 0.54 0.52 0.50 0.48 0.48 0.48 0.46 0.46 0.46 0.46 0.44 0.44 0.44 0.44 0.44 0.42 0.42 0.40 0.40 0.40 0.40 0.40 0.38 0.38 0.38 0.38 0.38 0.38 0.38
0.56 0.56 0.58 0.58 0.58 0.56 0.52 0.54 0.56 0.60 0.64 0.64 0.64 0.64 0.64 0.64 0.64 0.64 0.64 0.66 0.66 0.68 0.68 0.66 0.66 0.64 0.60 0.60 0.60 0.60 0.60 0.60 0.58 0.58 0.58 0.56 0.56 0.56 0.56 0.54 0.54 0.54 0.56 0.56 0.56 0.56 0.58 0.56 0.56 0.58 0.58 0.58 0.58 0.58 0.56 0.56 0.56 0.54 0.50 0.50 0.50 0.48 0.48 0.48 0.48 0.48 0.48 0.46 0.46 0.46 0.44 0.44 0.44 0.42 0.42 0.42 0.40 0.40 0.40 0.40 0.40 0.38 0.38 0.38 0.38 0.38
0.56 0.58 0.60 0.60 0.60 0.58 0.54 0.58 0.60 0.62 0.64 0.66 0.66 0.66 0.66 0.66 0.64 0.64 0.62 0.64 0.64 0.66 0.64 0.64 0.62 0.60 0.58 0.58 0.60 0.60 0.60 0.60 0.58 0.58 0.58 0.56 0.56 0.56 0.56 0.54 0.54 0.54 0.54 0.52 0.52 0.54 0.54 0.52 0.52 0.52 0.54 0.52 0.52 0.52 0.48 0.48 0.50 0.48 0.44 0.46 0.48 0.48 0.46 0.46 0.48 0.48 0.48 0.48 0.48 0.48 0.46 0.46 0.44 0.44 0.42 0.42 0.42 0.40 0.40 0.40 0.40 0.38 0.38 0.38 0.38 0.38
0.58 0.60 0.62 0.62 0.62 0.62 0.60 0.62 0.64 0.64 0.66 0.64 0.64 0.62 0.64 0.66 0.66 0.66 0.62 0.62 0.62 0.62 0.60 0.60 0.60 0.60 0.60 0.60 0.60 0.60 0.60 0.58 0.56 0.56 0.56 0.56 0.56 0.56 0.54 0.52 0.52 0.52 0.52 0.50 0.50 0.52 0.52 0.50 0.50 0.50 0.50 0.50 0.48 0.48 0.46 0.44 0.44 0.42 0.40 0.40 0.42 0.42 0.42 0.44 0.46 0.46 0.46 0.48 0.48 0.48 0.46 0.46 0.46 0.44 0.44 0.42 0.42 0.40 0.40 0.40 0.40 0.40 0.38 0.38 0.38 0.38
0.60 0.62 0.64 0.64 0.64 0.64 0.64 0.64 0.64 0.64 0.66 0.64 0.62 0.60 0.62 0.66 0.68 0.66 0.64 0.62 0.60 0.60 0.60 0.58 0.58 0.60 0.62 0.62 0.60 0.60 0.60 0.58 0.56 0.56 0.54 0.54 0.54 0.54 0.54 0.52 0.50 0.48 0.48 0.48 0.48 0.48 0.50 0.48 0.48 0.50 0.50 0.48 0.46 0.46 0.44 0.42 0.40 0.38 0.36 0.36 0.38 0.38 0.38 0.40 0.42 0.44 0.44 0.46 0.46 0.48 0.48 0.46 0.46 0.44 0.44 0.42 0.42 0.40 0.40 0.40 0.40 0.40 0.40 0.40 0.40 0.40
0.56 0.58 0.62 0.62 0.64 0.64 0.64 0.64 0.64 0.64 0.64 0.66 0.66 0.66 0.66 0.68 0.68 0.68 0.64 0.62 0.62 0.60 0.62 0.60 0.60 0.60 0.62 0.62 0.62 0.62 0.60 0.58 0.56 0.54 0.54 0.54 0.54 0.54 0.52 0.50 0.48 0.46 0.46 0.44 0.44 0.46 0.48 0.46 0.46 0.46 0.48 0.46 0.46 0.44 0.42 0.40 0.38 0.36 0.36 0.36 0.36 0.36 0.38 0.38 0.40 0.42 0.44 0.46 0.46 0.48 0.48 0.48 0.46 0.46 0.44 0.44 0.42 0.42 0.42 0.42 0.42 0.40 0.40 0.40 0.40 0.40
0.54 0.54 0.56 0.58 0.58 0.62 0.62 0.64 0.64 0.64 0.64 0.66 0.66 0.68 0.68 0.70 0.70 0.68 0.66 0.62 0.62 0.62 0.64 0.64 0.62 0.62 0.62 0.62 0.62 0.62 0.60 0.58 0.56 0.54 0.52 0.52 0.52 0.54 0.54 0.48 0.46 0.46 0.44 0.44 0.44 0.44 0.46 0.44 0.44 0.44 0.46 0.44 0.44 0.44 0.42 0.40 0.38 0.36 0.36 0.36 0.36 0.38 0.38 0.40 0.42 0.42 0.44 0.46 0.48 0.48 0.48 0.48 0.48 0.46 0.44 0.44 0.44 0.42 0.42 0.42 0.42 0.42 0.42 0.42 0.40 0.40
0.54 0.54 0.54 0.54 0.56 0.58 0.60 0.60 0.62 0.62 0.64 0.64 0.66 0.66 0.66 0.68 0.66 0.66 0.64 0.62 0.60 0.62 0.64 0.62 0.62 0.60 0.60 0.62 0.62 0.62 0.60 0.58 0.56 0.54 0.52 0.50 0.52 0.52 0.52 0.48 0.46 0.44 0.44 0.42 0.42 0.42 0.44 0.44 0.44 0.44 0.44 0.42 0.42 0.42 0.40 0.38 0.38 0.38 0.38 0.38 0.38 0.38 0.38 0.40 0.40 0.42 0.42 0.44 0.46 0.46 0.48 0.48 0.46 0.46 0.46 0.44 0.42 0.42 0.42 0.42 0.42 0.42 0.42 0.42 0.42 0.42
0.54 0.54 0.54 0.54 0.56 0.56 0.58 0.60 0.60 0.60 0.62 0.62 0.62 0.62 0.64 0.64 0.64 0.62 0.62 0.60 0.60 0.62 0.62 0.60 0.58 0.56 0.54 0.56 0.58 0.60 0.62 0.56 0.54 0.52 0.50 0.50 0.50 0.52 0.52 0.48 0.44 0.42 0.42 0.40 0.40 0.42 0.42 0.42 0.42 0.42 0.42 0.40 0.38 0.38 0.38 0.38 0.38 0.40 0.40 0.40 0.40 0.38 0.38 0.40 0.40 0.40 0.40 0.42 0.42 0.42 0.44 0.44 0.44 0.42 0.42 0.42 0.42 0.40 0.42 0.42 0.42 0.42 0.42 0.42 0.42 0.42
0.54 0.54 0.54 0.54 0.54 0.56 0.56 0.58 0.58 0.60 0.60 0.60 0.60 0.60 0.60 0.62 0.62 0.60 0.60 0.60 0.60 0.60 0.58 0.58 0.56 0.54 0.52 0.52 0.54 0.58 0.60 0.58 0.54 0.52 0.52 0.48 0.48 0.48 0.50 0.46 0.42 0.40 0.40 0.40 0.40 0.42 0.42 0.40 0.40 0.38 0.38 0.36 0.36 0.38 0.38 0.40 0.40 0.40 0.40 0.38 0.38 0.38 0.36 0.38 0.38 0.38 0.38 0.40 0.40 0.42 0.40 0.42 0.40 0.40 0.40 0.40 0.40 0.40 0.40 0.42 0.42 0.42 0.44 0.44 0.42 0.42
0.54 0.54 0.54 0.54 0.54 0.54 0.56 0.56 0.58 0.58 0.58 0.58 0.58 0.58 0.58 0.60 0.60 0.60 0.58 0.58 0.58 0.58 0.56 0.56 0.54 0.54 0.52 0.52 0.54 0.56 0.58 0.54 0.52 0.50 0.48 0.46 0.46 0.48 0.50 0.46 0.42 0.40 0.38 0.36 0.38 0.38 0.40 0.38 0.38 0.36 0.36 0.36 0.38 0.38 0.38 0.38 0.38 0.38 0.38 0.36 0.36 0.36 0.34 0.34 0.36 0.36 0.34 0.36 0.36 0.36 0.36 0.38 0.36 0.36 0.36 0.38 0.38 0.38 0.40 0.40 0.42 0.42 0.44 0.44 0.44 0.44
0.52 0.54 0.54 0.54 0.56 0.56 0.56 0.56 0.56 0.58 0.58 0.58 0.58 0.58 0.58 0.58 0.58 0.58 0.58 0.58 0.58 0.56 0.54 0.54 0.52 0.50 0.50 0.50 0.52 0.56 0.56 0.52 0.50 0.48 0.46 0.44 0.44 0.44 0.46 0.40 0.38 0.36 0.36 0.34 0.36 0.38 0.38 0.36 0.36 0.36 0.36 0.36 0.36 0.36 0.38 0.36 0.36 0.36 0.36 0.34 0.34 0.34 0.30 0.32 0.32 0.32 0.32 0.32 0.34 0.34 0.34 0.34 0.34 0.34 0.34 0.36 0.36 0.38 0.40 0.40 0.42 0.44 0.44 0.44 0.44 0.44
0.52 0.52 0.54 0.56 0.56 0.56 0.54 0.56 0.58 0.58 0.58 0.60 0.58 0.58 0.56 0.56 0.56 0.54 0.56 0.56 0.56 0.54 0.52 0.50 0.50 0.50 0.50 0.50 0.50 0.52 0.54 0.52 0.50 0.48 0.44 0.40 0.40 0.40 0.42 0.36 0.34 0.32 0.32 0.34 0.36 0.36 0.36 0.34 0.34 0.34 0.34 0.34 0.34 0.34 0.36 0.34 0.34 0.34 0.34 0.32 0.32 0.30 0.30 0.30 0.30 0.30 0.30 0.30 0.30 0.30 0.30 0.30 0.30 0.32 0.32 0.34 0.34 0.36 0.38 0.40 0.42 0.44 0.44 0.44 0.46 0.46
0.52 0.52 0.54 0.56 0.56 0.56 0.56 0.56 0.58 0.58 0.60 0.58 0.56 0.54 0.54 0.54 0.52 0.52 0.52 0.52 0.52 0.52 0.50 0.48 0.48 0.48 0.48 0.50 0.50 0.52 0.52 0.50 0.46 0.44 0.42 0.36 0.34 0.36 0.36 0.36 0.34 0.32 0.32 0.32 0.34 0.34 0.36 0.34 0.34 0.34 0.34 0.32 0.32 0.32 0.34 0.32 0.32 0.32 0.32 0.30 0.30 0.30 0.30 0.28 0.28 0.28 0.28 0.28 0.28 0.28 0.28 0.30 0.30 0.32 0.32 0.34 0.34 0.36 0.38 0.38 0.40 0.40 0.42 0.42 0.44 0.44
0.50 0.50 0.52 0.52 0.54 0.54 0.54 0.56 0.56 0.58 0.58 0.56 0.54 0.54 0.54 0.52 0.52 0.50 0.50 0.50 0.50 0.48 0.48 0.48 0.48 0.48 0.48 0.48 0.50 0.50 0.48 0.46 0.44 0.42 0.38 0.34 0.32 0.34 0.36 0.34 0.34 0.32 0.32 0.32 0.34 0.34 0.34 0.32 0.32 0.32 0.32 0.30 0.30 0.30 0.30 0.28 0.28 0.28 0.28 0.28 0.28 0.28 0.28 0.28 0.28 0.28 0.28 0.28 0.28 0.28 0.30 0.30 0.30 0.30 0.32 0.34 0.34 0.36 0.38 0.38 0.40 0.40 0.42 0.42 0.42 0.44
0.48 0.50 0.50 0.52 0.52 0.54 0.52 0.52 0.54 0.54 0.56 0.54 0.54 0.54 0.54 0.52 0.52 0.52 0.50 0.50 0.48 0.48 0.46 0.46 0.46 0.46 0.44 0.44 0.46 0.46 0.44 0.44 0.44 0.42 0.40 0.34 0.32 0.32 0.34 0.32 0.32 0.32 0.32 0.32 0.32 0.32 0.32 0.30 0.30 0.30 0.30 0.28 0.28 0.28 0.28 0.26 0.26 0.26 0.26 0.26 0.26 0.26 0.26 0.26 0.26 0.26 0.26 0.28 0.28 0.30 0.30 0.30 0.30 0.30 0.30 0.32 0.32 0.34 0.36 0.36 0.38 0.38 0.40 0.40 0.40 0.42
0.46 0.48 0.48 0.50 0.52 0.52 0.50 0.52 0.52 0.52 0.52 0.50 0.50 0.50 0.52 0.52 0.50 0.50 0.50 0.50 0.48 0.46 0.44 0.44 0.42 0.42 0.40 0.42 0.42 0.42 0.42 0.42 0.42 0.40 0.38 0.34 0.32 0.32 0.32 0.32 0.32 0.30 0.30 0.30 0.32 0.32 0.30 0.30 0.28 0.30 0.28 0.28 0.26 0.26 0.26 0.24 0.24 0.24 0.24 0.24 0.24 0.24 0.24 0.24 0.26 0.26 0.26 0.26 0.28 0.28 0.28 0.28 0.28 0.28 0.28 0.30 0.30 0.30 0.32 0.34 0.36 0.36 0.38 0.38 0.40 0.40
0.44 0.46 0.46 0.48 0.50 0.50 0.50 0.50 0.50 0.50 0.50 0.50 0.48 0.48 0.48 0.48 0.46 0.44 0.46 0.46 0.44 0.42 0.40 0.40 0.38 0.38 0.38 0.40 0.40 0.40 0.38 0.40 0.40 0.38 0.36 0.32 0.30 0.30 0.30 0.32 0.32 0.30 0.30 0.30 0.30 0.30 0.30 0.28 0.28 0.28 0.28 0.26 0.24 0.24 0.24 0.22 0.22 0.22 0.22 0.22 0.22 0.22 0.24 0.22 0.24 0.24 0.24 0.24 0.26 0.26 0.26 0.26 0.26 0.26 0.26 0.28 0.28 0.28 0.28 0.30 0.32 0.34 0.36 0.36 0.38 0.40
0.42 0.42 0.44 0.46 0.48 0.48 0.48 0.48 0.50 0.50 0.50 0.48 0.46 0.46 0.44 0.44 0.42 0.40 0.40 0.42 0.42 0.40 0.40 0.38 0.38 0.36 0.36 0.36 0.36 0.36 0.36 0.38 0.38 0.36 0.36 0.32 0.30 0.30 0.30 0.32 0.32 0.30 0.30 0.28 0.28 0.28 0.28 0.26 0.26 0.26 0.26 0.24 0.22 0.22 0.22 0.20 0.20 0.20 0.20 0.20 0.20 0.20 0.22 0.22 0.22 0.22 0.22 0.22 0.24 0.24 0.24 0.24 0.24 0.26 0.24 0.26 0.26 0.26 0.28 0.30 0.30 0.32 0.34 0.36 0.38 0.38
0.38 0.40 0.42 0.44 0.44 0.44 0.46 0.46 0.48 0.48 0.48 0.48 0.48 0.46 0.46 0.44 0.40 0.38 0.38 0.40 0.40 0.38 0.38 0.36 0.36 0.36 0.34 0.34 0.36 0.36 0.36 0.36 0.36 0.36 0.36 0.34 0.30 0.28 0.28 0.30 0.30 0.30 0.30 0.28 0.26 0.28 0.28 0.24 0.24 0.24 0.22 0.22 0.20 0.20 0.20 0.18 0.18 0.18 0.18 0.18 0.18 0.18 0.20 0.18 0.18 0.20 0.20 0.20 0.20 0.20 0.20 0.22 0.22 0.22 0.22 0.22 0.24 0.24 0.26 0.28 0.30 0.32 0.34 0.34 0.36 0.36
0.36 0.38 0.40 0.42 0.42 0.42 0.44 0.44 0.46 0.48 0.48 0.48 0.48 0.48 0.46 0.44 0.40 0.38 0.38 0.40 0.38 0.36 0.36 0.36 0.36 0.34 0.34 0.34 0.34 0.34 0.34 0.36 0.36 0.36 0.36 0.30 0.28 0.28 0.30 0.30 0.30 0.30 0.28 0.26 0.24 0.24 0.26 0.24 0.22 0.22 0.22 0.20 0.18 0.18 0.18 0.16 0.16 0.16 0.16 0.14 0.14 0.14 0.16 0.14 0.14 0.16 0.16 0.16 0.16 0.18 0.16 0.18 0.20 0.20 0.20 0.20 0.20 0.22 0.22 0.24 0.26 0.28 0.30 0.32 0.32 0.34
0.32 0.34 0.36 0.38 0.40 0.40 0.42 0.42 0.44 0.46 0.46 0.46 0.46 0.46 0.46 0.42 0.42 0.40 0.38 0.38 0.38 0.36 0.34 0.34 0.34 0.34 0.34 0.32 0.32 0.32 0.30 0.32 0.34 0.36 0.34 0.30 0.28 0.28 0.30 0.28 0.28 0.28 0.28 0.24 0.22 0.22 0.22 0.20 0.20 0.20 0.20 0.18 0.16 0.16 0.16 0.14 0.14 0.14 0.14 0.12 0.12 0.12 0.12 0.12 0.12 0.14 0.14 0.14 0.14 0.16 0.14 0.16 0.16 0.18 0.18 0.18 0.20 0.20 0.20 0.22 0.24 0.24 0.26 0.28 0.30 0.30
0.28 0.30 0.32 0.34 0.36 0.36 0.38 0.40 0.42 0.42 0.42 0.42 0.42 0.42 0.44 0.40 0.40 0.40 0.38 0.38 0.36 0.34 0.34 0.34 0.34 0.32 0.32 0.30 0.30 0.28 0.28 0.30 0.32 0.34 0.34 0.30 0.28 0.28 0.28 0.28 0.26 0.26 0.28 0.24 0.20 0.18 0.16 0.16 0.16 0.18 0.18 0.16 0.14 0.14 0.14 0.14 0.14 0.12 0.12 0.12 0.12 0.12 0.12 0.12 0.12 0.14 0.14 0.14 0.14 0.14 0.14 0.14 0.16 0.16 0.16 0.16 0.18 0.18 0.18 0.18 0.20 0.22 0.24 0.24 0.26 0.26
0.26 0.28 0.28 0.30 0.32 0.32 0.34 0.36 0.38 0.38 0.38 0.38 0.38 0.40 0.40 0.38 0.36 0.36 0.36 0.36 0.34 0.34 0.32 0.32 0.32 0.32 0.30 0.30 0.28 0.28 0.28 0.30 0.32 0.34 0.32 0.30 0.28 0.28 0.28 0.26 0.24 0.24 0.26 0.22 0.20 0.16 0.14 0.12 0.12 0.14 0.14 0.12 0.12 0.12 0.12 0.12 0.12 0.12 0.12 0.12 0.12 0.12 0.12 0.14 0.14 0.14 0.14 0.14 0.14 0.14 0.14 0.14 0.14 0.14 0.14 0.16 0.16 0.16 0.16 0.18 0.20 0.20 0.22 0.22 0.22 0.24
0.26 0.26 0.28 0.30 0.30 0.30 0.30 0.32 0.34 0.34 0.32 0.34 0.34 0.36 0.36 0.34 0.34 0.34 0.34 0.34 0.32 0.32 0.32 0.30 0.30 0.30 0.30 0.28 0.28 0.28 0.28 0.30 0.32 0.32 0.32 0.30 0.28 0.26 0.26 0.24 0.22 0.22 0.22 0.20 0.18 0.16 0.14 0.12 0.12 0.12 0.12 0.12 0.12 0.12 0.12 0.12 0.12 0.12 0.12 0.12 0.12 0.12 0.12 0.14 0.14 0.14 0.14 0.14 0.14 0.14 0.14 0.14 0.14 0.14 0.14 0.14 0.14 0.16 0.16 0.16 0.18 0.20 0.20 0.20 0.20 0.22
0.24 0.26 0.26 0.26 0.26 0.26 0.28 0.30 0.30 0.30 0.28 0.30 0.30 0.32 0.32 0.30 0.30 0.30 0.32 0.32 0.30 0.30 0.30 0.30 0.28 0.28 0.28 0.28 0.28 0.28 0.26 0.28 0.30 0.32 0.32 0.28 0.26 0.24 0.24 0.22 0.20 0.20 0.18 0.16 0.14 0.14 0.12 0.12 0.11 0.11 0.11 0.11 0.11 0.11 0.12 0.12 0.12 0.12 0.12 0.14 0.14 0.14 0.14 0.14 0.14 0.14 0.14 0.14 0.14 0.14 0.14 0.14 0.14 0.14 0.14 0.14 0.14 0.16 0.16 0.16 0.18 0.18 0.20 0.20 0.20 0.20
0.22 0.24 0.24 0.24 0.24 0.24 0.24 0.24 0.26 0.26 0.24 0.26 0.26 0.28 0.30 0.28 0.28 0.28 0.28 0.28 0.28 0.28 0.28 0.28 0.28 0.28 0.26 0.26 0.26 0.26 0.24 0.26 0.28 0.30 0.30 0.26 0.24 0.22 0.22 0.18 0.18 0.16 0.16 0.14 0.12 0.12 0.12 0.11 0.11 0.11 0.11 0.11 0.11 0.11 0.12 0.12 0.12 0.14 0.14 0.14 0.14 0.14 0.14 0.14 0.14 0.14 0.14 0.14 0.14 0.14 0.14 0.14 0.14 0.14 0.14 0.14 0.14 0.16 0.16 0.16 0.18 0.18 0.18 0.18 0.20 0.20
0.22 0.22 0.22 0.22 0.22 0.20 0.22 0.22 0.22 0.22 0.22 0.22 0.22 0.24 0.24 0.22 0.22 0.24 0.24 0.24 0.24 0.24 0.26 0.26 0.26 0.28 0.26 0.26 0.26 0.24 0.24 0.26 0.26 0.28 0.26 0.24 0.22 0.20 0.18 0.18 0.16 0.16 0.14 0.12 0.12 0.11 0.11 0.11 0.11 0.11 0.11 0.11 0.11 0.11 0.11 0.12 0.14 0.14 0.14 0.14 0.14 0.14 0.14 0.14 0.14 0.14 0.14 0.14 0.14 0.14 0.14 0.14 0.14 0.14 0.14 0.16 0.16 0.16 0.16 0.16 0.16 0.16 0.16 0.18 0.18 0.20
0.20 0.20 0.20 0.20 0.20 0.20 0.20 0.20 0.20 0.20 0.20 0.20 0.20 0.20 0.20 0.20 0.20 0.20 0.20 0.22 0.22 0.22 0.22 0.24 0.24 0.26 0.24 0.24 0.24 0.24 0.22 0.24 0.24 0.24 0.24 0.22 0.20 0.20 0.18 0.16 0.16 0.16 0.14 0.14 0.12 0.12 0.12 0.11 0.11 0.11 0.11 0.11 0.11 0.11 0.12 0.12 0.14 0.14 0.14 0.14 0.14 0.14 0.14 0.14 0.14 0.14 0.14 0.14 0.14 0.14 0.14 0.14 0.14 0.14 0.14 0.16 0.16 0.16 0.14 0.16 0.16 0.16 0.16 0.16 0.16 0.18
0.18 0.18 0.20 0.20 0.18 0.18 0.18 0.18 0.18 0.18 0.18 0.18 0.18 0.18 0.18 0.18 0.20 0.20 0.20 0.20 0.20 0.20 0.20 0.20 0.22 0.22 0.20 0.22 0.22 0.22 0.20 0.20 0.20 0.20 0.20 0.20 0.18 0.18 0.16 0.16 0.16 0.16 0.16 0.16 0.14 0.14 0.12 0.12 0.11 0.11 0.11 0.11 0.12 0.12 0.12 0.14 0.14 0.14 0.14 0.14 0.14 0.14 0.14 0.16 0.16 0.16 0.14 0.14 0.14 0.14 0.14 0.16 0.16 0.16 0.16 0.14 0.14 0.14 0.14 0.14 0.14 0.14 0.14 0.16 0.16 0.16
0.16 0.18 0.18 0.18 0.18 0.18 0.18 0.18 0.18 0.18 0.18 0.18 0.18 0.18 0.18 0.18 0.20 0.20 0.20 0.20 0.20 0.18 0.18 0.18 0.20 0.20 0.18 0.20 0.20 0.20 0.18 0.18 0.18 0.18 0.18 0.18 0.18 0.16 0.16 0.16 0.16 0.16 0.16 0.16 0.16 0.14 0.14 0.12 0.12 0.12 0.12 0.12 0.12 0.12 0.14 0.14 0.14 0.14 0.14 0.14 0.14 0.14 0.14 0.16 0.16 0.16 0.16 0.14 0.14 0.14 0.14 0.14 0.14 0.14 0.14 0.14 0.14 0.14 0.12 0.12 0.14 0.14 0.14 0.14 0.16 0.16
0.16 0.16 0.16 0.16 0.16 0.16 0.16 0.16 0.16 0.18 0.18 0.18 0.18 0.18 0.18 0.18 0.18 0.18 0.18 0.18 0.18 0.18 0.18 0.18 0.18 0.18 0.18 0.18 0.18 0.18 0.18 0.18 0.18 0.18 0.18 0.18 0.18 0.18 0.18 0.16 0.16 0.16 0.16 0.16 0.16 0.16 0.16 0.14 0.14 0.14 0.14 0.12 0.12 0.14 0.14 0.14 0.14 0.14 0.14 0.14 0.14 0.14 0.14 0.16 0.16 0.16 0.16 0.14 0.14 0.14 0.14 0.14 0.14 0.14 0.14 0.14 0.14 0.14 0.14 0.14 0.14 0.14 0.16 0.16 0.16 0.14
0.16 0.16 0.16 0.16 0.16 0.16 0.16 0.16 0.16 0.16 0.16 0.16 0.16 0.16 0.18 0.16 0.16 0.16 0.16 0.18 0.16 0.16 0.16 0.16 0.18 0.16 0.16 0.16 0.16 0.16 0.16 0.16 0.18 0.18 0.18 0.18 0.18 0.18 0.18 0.18 0.18 0.18 0.18 0.18 0.18 0.16 0.16 0.16 0.16 0.14 0.14 0.14 0.14 0.14 0.14 0.14 0.14 0.16 0.14 0.14 0.14 0.14 0.16 0.16 0.16 0.14 0.14 0.14 0.14 0.14 0.14 0.14 0.14 0.14 0.14 0.14 0.14 0.14 0.14 0.16 0.16 0.16 0.16 0.16 0.16 0.16
0.16 0.16 0.16 0.16 0.16 0.16 0.16 0.16 0.16 0.16 0.16 0.16 0.16 0.16 0.16 0.16 0.14 0.14 0.14 0.16 0.14 0.14 0.16 0.16 0.16 0.14 0.14 0.14 0.16 0.16 0.16 0.16 0.16 0.18 0.18 0.18 0.18 0.18 0.18 0.18 0.18 0.18 0.18 0.18 0.18 0.18 0.16 0.16 0.16 0.16 0.16 0.16 0.16 0.16 0.14 0.14 0.16 0.16 0.16 0.16 0.16 0.16 0.16 0.16 0.16 0.14 0.14 0.14 0.14 0.14 0.14 0.14 0.14 0.14 0.14 0.16 0.16 0.16 0.16 0.16 0.16 0.16 0.18 0.18 0.18 0.18
0.14 0.14 0.16 0.14 0.14 0.16 0.16 0.16 0.16 0.16 0.14 0.14 0.14 0.14 0.14 0.14 0.14 0.14 0.14 0.14 0.14 0.14 0.14 0.14 0.14 0.14 0.12 0.12 0.12 0.14 0.14 0.14 0.16 0.16 0.16 0.16 0.18 0.18 0.18 0.18 0.18 0.18 0.18 0.18 0.16 0.16 0.16 0.18 0.18 0.16 0.18 0.18 0.16 0.16 0.16 0.16 0.16 0.16 0.16 0.16 0.14 0.14 0.12 0.14 0.14 0.14 0.14 0.14 0.14 0.14 0.14 0.16 0.16 0.16 0.16 0.16 0.16 0.16 0.16 0.16 0.18 0.18 0.18 0.18 0.18 0.18
0.14 0.14 0.14 0.14 0.14 0.14 0.14 0.14 0.14 0.14 0.14 0.14 0.14 0.14 0.14 0.14 0.14 0.14 0.14 0.14 0.14 0.12 0.14 0.14 0.14 0.12 0.12 0.12 0.12 0.12 0.12 0.14 0.14 0.16 0.16 0.16 0.18 0.18 0.18 0.18 0.18 0.18 0.18 0.16 0.16 0.16 0.16 0.16 0.16 0.16 0.18 0.18 0.16 0.16 0.14 0.14 0.14 0.14 0.14 0.16 0.14 0.14 0.14 0.12 0.14 0.14 0.14 0.14 0.14 0.14 0.16 0.16 0.16 0.16 0.16 0.16 0.16 0.16 0.16 0.16 0.18 0.18 0.18 0.20 0.20 0.20
0.12 0.12 0.14 0.12 0.12 0.12 0.12 0.12 0.12 0.12 0.12 0.12 0.12 0.12 0.14 0.14 0.14 0.14 0.14 0.14 0.12 0.12 0.12 0.12 0.12 0.12 0.11 0.11 0.12 0.12 0.12 0.12 0.14 0.14 0.16 0.16 0.16 0.16 0.16 0.16 0.16 0.16 0.16 0.16 0.16 0.16 0.14 0.14 0.16 0.16 0.16 0.16 0.16 0.14 0.14 0.14 0.14 0.14 0.14 0.14 0.14 0.14 0.14 0.14 0.14 0.14 0.14 0.14 0.14 0.16 0.16 0.16 0.16 0.16 0.16 0.16 0.16 0.16 0.16 0.16 0.16 0.16 0.18 0.18 0.20 0.20
0.12 0.12 0.12 0.12 0.12 0.12 0.12 0.12 0.12 0.12 0.12 0.12 0.12 0.12 0.12 0.12 0.12 0.12 0.12 0.12 0.12 0.12 0.12 0.12 0.12 0.11 0.11 0.11 0.11 0.11 0.11 0.12 0.12 0.14 0.14 0.14 0.14 0.14 0.16 0.16 0.16 0.16 0.16 0.16 0.16 0.16 0.16 0.16 0.16 0.16 0.16 0.16 0.14 0.14 0.14 0.14 0.14 0.14 0.14 0.14 0.14 0.14 0.14 0.14 0.16 0.16 0.16 0.16 0.16 0.16 0.16 0.18 0.18 0.18 0.16 0.16 0.16 0.16 0.16 0.16 0.16 0.16 0.18 0.18 0.20 0.20
0.12 0.11 0.11 0.11 0.11 0.11 0.11 0.12 0.11 0.11 0.11 0.11 0.11 0.12 0.12 0.12 0.12 0.12 0.12 0.12 0.12 0.12 0.12 0.12 0.12 0.11 0.11 0.11 0.11 0.11 0.11 0.11 0.11 0.12 0.12 0.12 0.14 0.14 0.14 0.14 0.16 0.16 0.16 0.16 0.16 0.16 0.16 0.16 0.16 0.16 0.14 0.14 0.14 0.12 0.14 0.14 0.14 0.12 0.12 0.14 0.14 0.14 0.14 0.14 0.16 0.16 0.16 0.16 0.16 0.18 0.18 0.18 0.18 0.16 0.16 0.16 0.16 0.16 0.16 0.16 0.16 0.16 0.18 0.18 0.18 0.20
0.11 0.11 0.11 0.11 0.11 0.11 0.11 0.11 0.11 0.11 0.11 0.11 0.11 0.11 0.11 0.11 0.12 0.12 0.12 0.12 0.12 0.11 0.11 0.11 0.11 0.11 0.11 0.11 0.11 0.11 0.11 0.11 0.11 0.12 0.12 0.12 0.12 0.14 0.14 0.14 0.14 0.14 0.16 0.16 0.16 0.16 0.16 0.16 0.16 0.14 0.14 0.14 0.12 0.12 0.12 0.12 0.14 0.14 0.14 0.14 0.14 0.14 0.14 0.14 0.16 0.16 0.18 0.18 0.18 0.18 0.18 0.18 0.16 0.16 0.16 0.14 0.14 0.14 0.14 0.14 0.14 0.14 0.16 0.16 0.18 0.18
0.11 0.11 0.11 0.11 0.11 0.11 0.11 0.11 0.11 0.11 0.11 0.11 0.11 0.11 0.11 0.11 0.11 0.11 0.11 0.11 0.11 0.11 0.11 0.11 0.11 0.11 0.11 0.11 0.11 0.11 0.11 0.11 0.11 0.12 0.12 0.12 0.12 0.12 0.12 0.12 0.14 0.14 0.14 0.14 0.14 0.14 0.14 0.14 0.14 0.14 0.16 0.14 0.14 0.12 0.12 0.12 0.14 0.14 0.16 0.16 0.16 0.16 0.16 0.16 0.16 0.18 0.18 0.18 0.18 0.18 0.18 0.18 0.16 0.16 0.14 0.14 0.12 0.12 0.12 0.12 0.12 0.14 0.14 0.16 0.16 0.18
0.12 0.12 0.11 0.11 0.11 0.11 0.11 0.11 0.11 0.11 0.11 0.11 0.11 0.11 0.11 0.11 0.11 0.11 0.11 0.11 0.11 0.11 0.11 0.11 0.11 0.11 0.11 0.11 0.11 0.11 0.11 0.11 0.11 0.11 0.11 0.12 0.12 0.12 0.12 0.12 0.12 0.12 0.12 0.12 0.12 0.12 0.12 0.14 0.14 0.14 0.14 0.14 0.14 0.14 0.14 0.14 0.14 0.16 0.16 0.16 0.16 0.16 0.16 0.16 0.16 0.16 0.16 0.16 0.16 0.16 0.16 0.16 0.16 0.14 0.14 0.14 0.12 0.12 0.12 0.12 0.12 0.12 0.12 0.12 0.14 0.14
0.12 0.12 0.12 0.12 0.12 0.11 0.11 0.11 0.11 0.11 0.11 0.11 0.11 0.11 0.11 0.11 0.11 0.11 0.11 0.11 0.11 0.11 0.11 0.11 0.11 0.11 0.11 0.11 0.11 0.11 0.11 0.11 0.11 0.11 0.11 0.12 0.12 0.12 0.12 0.12 0.12 0.12 0.12 0.12 0.11 0.11 0.11 0.11 0.11 0.11 0.11 0.14 0.16 0.16 0.16 0.14 0.14 0.14 0.14 0.14 0.14 0.14 0.14 0.14 0.14 0.16 0.16 0.16 0.16 0.16 0.14 0.14 0.14 0.14 0.14 0.14 0.12 0.12 0.11 0.11 0.11 0.12 0.12 0.12 0.12 0.12
Wind_Speed
32 30 29 28 28 29 30 31 31 31 31 31 31 31 30 30 30 30 30 30 29 29 29 29 29 29 29 29 29 29 29 29 29 29 29 29 29 28 28 28 28 28 28 28 29 29 29 29 29 29 29 29 29 29 29 29 29 29 29 29 29 29 29 30 30 30 31 31 31 31 31 32 32 32 32 33 33 33 33 33 34 34 34 35 35 36
32 31 30 29 28 28 29 30 30 30 30 31 31 31 31 31 31 31 30 30 30 30 29 29 29 29 29 28 28 28 28 28 28 28 28 28 28 28 28 28 28 28 28 28 28 29 29 29 29 29 29 29 29 29 29 29 29 29 29 29 29 29 29 29 29 30 30 30 30 31 31 31 31 32 32 32 32 33 33 33 33 33 34 34 34 35
33 32 31 30 29 29 29 29 30 30 30 30 31 31 31 31 31 31 31 31 31 30 30 30 29 29 29 28 28 28 28 28 28 28 28 27 27 27 28 28 28 28 28 28 28 29 29 29 29 29 29 29 29 29 29 29 28 28 28 28 28 28 28 28 28 29 29 29 29 30 30 30 30 31 31 31 32 32 32 32 33 33 33 34 34 34
33 33 32 31 30 29 29 30 30 30 30 30 31 31 31 31 32 32 31 31 31 31 31 30 30 29 29 28 28 28 28 28 28 28 27 27 27 27 28 28 28 28 28 28 29 29 29 29 29 29 29 29 29 29 28 28 28 28 27 27 27 27 27 27 27 27 28 28 28 28 28 29 29 29 30 30 31 31 31 32 32 32 33 33 33 34
34 34 33 32 31 31 30 30 30 30 31 31 31 31 31 32 32 32 32 31 31 31 31 31 30 30 29 29 28 28 28 28 28 28 27 27 27 28 28 28 28 29 29 29 29 29 29 29 29 29 29 28 28 28 28 27 27 27 27 27 27 27 27 27 27 27 27 27 27 27 27 27 28 28 29 29 30 30 30 31 31 32 32 33 33 33
34 34 34 33 33 32 31 31 30 30 31 31 31 31 31 32 32 32 32 32 31 31 31 31 31 30 30 29 28 28 28 28 28 28 27 27 27 28 28 28 29 29 29 29 29 29 29 29 29 29 28 28 27 27 27 27 26 26 26 26 26 26 26 26 26 26 26 26 26 26 26 27 27 27 28 28 29 29 30 30 31 31 32 32 33 33
34 34 34 34 34 33 33 32 31 31 31 31 31 31 31 32 32 32 32 32 32 32 31 31 30 30 30 29 29 28 28 28 27 27 27 27 27 28 28 28 28 29 29 29 29 29 29 29 28 28 28 27 27 27 26 26 26 26 26 26 26 26 26 26 26 26 26 26 26 26 27 27 27 27 27 28 28 28 29 29 30 31 31 32 32 33
33 33 33 33 34 34 33 33 33 32 32 32 31 31 32 32 32 32 33 33 33 32 31 31 30 30 30 30 29 28 28 27 27 27 27 27 28 28 28 28 28 28 28 29 29 29 28 28 28 27 27 27 27 27 27 26 26 26 26 26 26 26 26 26 26 26 26 26 27 27 27 27 27 27 28 28 28 28 29 29 30 30 31 32 32 33
32 32 33 33 33 33 34 34 34 34 33 33 32 32 32 33 33 33 33 33 33 33 32 31 30 30 31 30 29 29 28 28 28 28 28 28 28 28 28 27 27 27 27 27 27 27 27 27 27 27 27 27 27 27 27 27 27 27 26 26 26 26 26 26 26 26 26 27 27 27 27 27 28 28 28 28 29 29 29 29 30 30 31 32 32 33
32 32 32 33 33 34 34 34 34 34 33 33 33 33 33 33 33 33 33 33 34 33 33 32 31 31 31 31 30 29 29 29 29 28 28 28 28 28 28 27 27 26 26 26 26 26 26 26 26 26 26 26 26 26 26 26 26 26 26 26 27 27 27 27 27 27 27 27 27 27 27 28 28 28 28 29 29 29 30 30 30 31 31 32 32 33
31 31 32 32 33 33 34 34 34 34 33 33 32 32 32 33 33 33 33 34 34 33 33 32 32 32 31 31 31 30 30 30 29 29 29 28 28 28 27 27 26 26 26 25 25 25 25 25 25 25 25 25 25 26 26 26 26 26 26 27 27 27 27 27 27 27 27 27 27 27 27 28 28 28 28 29 29 30 30 30 31 31 32 32 33 33
31 31 31 32 32 33 33 34 34 33 33 32 32 32 31 32 32 33 33 33 33 33 32 32 32 32 31 31 31 30 30 30 30 29 29 28 28 27 27 27 26 26 25 25 25 25 25 25 25 25 25 26 26 26 26 26 26 27 27 27 28 28 28 28 28 28 28 28 27 27 28 28 28 28 28 29 29 30 30 30 31 31 32 32 33 33
31 31 31 31 31 31 32 32 32 32 32 31 31 31 31 31 31 31 31 31 31 31 31 31 31 30 30 30 30 30 30 30 29 29 29 28 28 27 27 27 26 26 25 25 25 25 25 25 25 26 26 26 27 27 27 27 27 27 28 28 28 28 28 28 28 28 28 28 28 28 28 28 28 28 28 29 29 29 30 30 31 31 32 32 33 33
31 31 31 31 31 31 30 30 30 30 30 30 30 30 30 30 30 30 30 30 30 30 30 29 29 28 29 29 29 30 29 29 29 28 28 28 28 27 27 26 26 26 25 25 26 26 26 26 26 26 27 27 27 27 27 28 28 28 28 29 29 29 28 28 28 28 28 28 28 28 28 28 28 28 28 28 29 29 29 30 31 31 32 32 33 34
32 32 31 31 31 31 30 30 30 30 30 30 30 29 29 29 29 29 29 29 29 29 28 28 28 28 28 28 29 29 29 29 28 28 27 27 27 27 26 26 26 26 25 25 26 26 26 26 27 27 27 27 27 27 27 28 28 28 28 28 28 28 28 28 28 28 28 28 28 27 27 28 28 28 28 28 29 29 29 30 30 31 32 32 33 34
32 32 32 32 31 31 31 31 30 30 30 30 29 29 28 28 28 28 29 29 29 28 28 28 28 28 29 29 29 29 29 28 28 27 27 27 27 27 26 26 26 26 25 25 26 26 27 27 27 27 27 27 27 27 27 27 27 27 27 26 26 26 26 26 26 26 27 27 27 27 27 27 28 28 28 28 29 29 29 30 30 31 31 32 33 33
32 32 32 31 31 31 30 30 30 30 30 30 29 28 28 28 28 29 29 29 29 28 28 29 29 29 29 29 29 29 28 28 28 27 26 26 27 27 26 26 26 26 25 26 26 26 27 27 27 27 27 27 27 27 27 26 26 25 25 25 24 24 25 25 25 25 25 26 26 26 27 27 27 28 28 29 29 29 29 30 30 31 31 32 32 33
31 31 31 31 31 30 30 30 30 30 30 29 29 28 28 29 29 29 29 29 28 28 28 29 29 30 29 29 29 28 28 28 27 27 26 26 27 27 26 26 26 26 26 26 26 26 27 27 27 27 26 26 26 26 25 25 24 24 23 24 24 24 24 24 25 25 25 25 26 26 26 27 27 28 28 29 29 29 29 30 30 30 31 31 32 32
29 29 30 30 30 30 30 30 29 29 29 29 29 29 28 29 29 29 29 28 28 27 28 29 29 30 30 30 29 29 28 27 27 26 26 27 27 27 27 26 26 26 26 26 26 26 26 26 26 26 26 26 25 25 24 24 23 23 23 24 24 24 24 24 25 25 25 25 26 26 26 27 27 27 28 28 29 29 29 29 30 30 30 31 31 32
28 28 28 29 29 29 29 29 29 29 29 29 29 28 28 28 28 27 27 27 27 27 28 29 29 29 30 30 29 29 28 27 26 26 27 27 28 28 27 26 26 26 26 26 26 26 26 26 26 26 25 25 25 24 24 23 23 24 24 24 24 24 24 25 25 25 25 25 26 26 26 27 27 27 28 28 29 29 29 29 29 30 30 30 31 31
26 27 27 28 28 28 29 29 29 29 29 28 28 28 28 27 27 27 27 27 27 28 28 29 29 29 29 29 29 28 27 26 26 26 27 27 28 28 27 26 26 26 26 26 26 26 26 26 26 25 25 25 25 24 24 24 24 24 24 24 24 24 24 25 25 25 25 26 26 26 27 27 27 28 28 29 29 29 30 30 30 30 30 30 31 31
25 26 26 27 27 27 28 28 28 28 28 28 27 27 27 27 27 27 27 27 27 28 28 28 28 28 28 28 28 27 27 26 26 27 27 28 28 27 27 26 25 25 26 26 26 26 26 26 26 25 25 25 25 25 25 25 25 25 25 25 25 24 24 25 25 25 26 26 26 27 27 27 28 28 29 29 29 30 30 30 30 30 31 31 31 31
25 26 26 26 26 27 27 27 28 28 28 27 27 27 27 27 27 27 27 27 27 27 27 27 27 27 27 27 27 26 26 26 27 27 27 28 28 27 26 25 25 25 26 26 26 26 26 26 26 26 26 26 26 25 25 25 25 25 25 25 25 25 25 25 25 26 26 26 26 27 27 27 28 28 29 29 30 30 30 31 31 31 31 31 31 32
25 26 26 26 26 27 27 27 27 27 27 27 27 27 27 27 27 27 27 27 27 27 27 26 26 26 26 25 25 25 26 26 26 27 27 27 27 26 25 25 25 25 26 26 26 26 26 26 26 26 26 26 26 26 26 26 26 25 25 25 25 25 25 25 26 26 26 26 27 27 27 28 28 29 29 29 30 30 30 31 31 31 31 31 32 32
25 26 26 27 27 27 27 27 28 28 27 27 27 27 27 27 27 27 27 27 27 26 26 26 25 25 25 24 24 25 25 25 26 26 27 27 26 25 25 25 25 25 26 26 26 26 26 26 26 26 26 26 26 26 26 26 26 25 25 25 25 25 26 26 26 27 27 27 27 28 28 28 29 29 29 30 30 30 31 31 31 31 31 32 32 32
25 25 26 26 27 27 27 27 27 27 27 27 27 27 27 27 27 27 27 26 26 26 26 25 25 25 25 25 25 25 25 26 26 26 27 26 26 25 25 25 25 26 26 26 26 26 26 26 27 26 26 26 26 26 26 26 26 26 26 26 26 26 26 27 27 27 27 28 28 28 28 29 29 29 30 30 31 31 31 31 31 32 32 32 32 32
24 25 25 25 26 26 26 26 27 27 27 27 27 27 27 27 27 27 27 27 27 26 26 26 26 26 26 26 26 26 26 26 26 27 27 26 26 25 25 25 25 26 26 26 26 26 26 26 27 27 26 26 26 26 25 25 25 26 26 26 26 27 27 28 28 28 28 28 29 29 29 29 30 30 30 31 31 31 31 32 32 32 32 32 32 32
24 25 25 25 25 26 26 26 26 26 26 25 25 25 26 26 26 26 27 27 27 27 27 27 27 27 27 27 27 27 27 27 27 27 27 26 26 26 26 26 26 26 26 26 27 27 27 27 27 27 26 26 26 26 26 26 26 26 26 27 27 27 28 28 29 29 29 29 29 30 30 30 31 31 31 31 32 32 32 32 33 33 33 33 32 32
24 25 25 25 25 25 26 26 25 25 24 23 23 23 24 25 25 25 26 27 27 27 27 28 28 28 28 28 28 28 27 27 27 27 27 26 26 26 26 26 26 26 26 26 27 27 27 27 27 26 26 26 26 26 26 26 26 26 27 27 28 28 28 29 29 29 30 30 30 30 31 31 31 31 32 32 32 32 32 33 33 33 33 33 33 33
24 24 25 25 25 25 25 25 25 24 23 23 23 23 23 24 24 24 25 26 26 26 27 27 28 28 29 29 29 28 28 27 27 27 26 26 26 26 26 26 26 26 25 26 26 26 26 27 27 26 26 26 26 26 26 27 27 27 28 28 28 29 29 29 29 30 30 30 30 31 31 31 32 32 32 32 32 33 33 33 33 33 33 33 33 33
24 24 24 24 24 24 25 25 25 24 24 23 23 23 24 24 24 25 25 25 26 26 27 27 27 28 28 28 28 28 28 27 26 26 26 26 27 27 26 26 26 26 26 25 25 26 26 27 27 27 27 27 27 27 27 28 28 28 28 29 29 29 29 29 29 30 30 30 30 30 31 31 31 32 32 32 32 33 33 33 33 33 33 33 33 33
22 23 23 23 24 24 24 24 25 25 25 25 25 25 25 25 25 25 25 26 26 26 27 27 27 27 27 28 28 28 28 27 26 26 26 27 27 27 27 27 27 27 26 26 26 26 26 26 27 27 28 28 28 28 28 28 28 29 29 29 29 29 29 29 29 30 30 30 30 30 30 31 31 31 31 32 32 32 33 33 33 33 33 32 32 33
21 22 22 22 23 23 23 24 24 25 25 25 26 26 26 26 26 26 26 26 26 27 27 27 27 27 27 28 28 28 28 28 27 27 27 27 27 28 28 27 27 27 27 27 27 27 27 28 28 28 29 29 29 29 29 29 29 29 29 29 29 29 29 29 30 30 30 30 30 30 31 31 31 31 31 31 32 32 32 32 32 32 32 32 32 32
20 21 21 22 22 22 23 23 24 24 25 25 25 26 26 26 26 26 26 26 26 27 27 27 28 28 28 28 28 28 28 28 28 28 28 28 28 28 28 28 28 28 28 28 28 28 28 29 29 29 29 29 29 29 29 29 29 29 29 29 29 29 29 29 30 30 30 30 30 30 31 31 31 31 31 31 31 31 32 32 32 32 32 32 32 32
20 20 21 21 21 22 22 23 23 24 24 24 25 25 25 25 25 25 26 26 26 26 27 27 27 28 28 28 28 29 29 29 29 29 28 29 29 29 29 29 29 29 29 29 29 29 29 29 29 29 29 29 29 29 29 29 29 29 29 29 29 29 29 30 30 30 30 30 30 30 31 31 31 31 31 31 31 31 32 32 32 32 32 32 31 31
19 19 20 20 20 21 21 21 22 22 23 23 23 24 24 24 24 25 25 25 26 26 26 26 27 27 28 28 28 29 29 29 29 29 29 29 29 29 29 29 29 29 29 29 29 29 29 29 30 29 29 29 30 29 29 29 29 29 29 29 29 29 30 30 30 30 30 30 30 30 30 31 31 31 31 31 32 32 32 32 32 32 32 32 32 31
18 18 19 19 19 20 20 20 21 21 21 22 22 22 23 23 23 24 24 24 25 25 26 26 26 26 27 27 28 28 28 29 29 29 29 29 29 29 29 29 29 29 29 29 29 30 30 30 30 30 30 30 30 29 29 29 29 29 29 29 29 30 30 30 30 30 30 30 30 30 30 30 31 31 31 32 32 32 32 32 32 32 32 32 32 32
17 18 18 18 19 19 19 19 20 20 20 21 21 22 22 22 23 23 23 23 24 24 25 25 26 26 26 27 27 27 28 28 28 28 28 29 29 29 29 29 29 30 30 30 30 30 30 30 30 30 30 30 30 30 30 30 29 30 30 30 30 29 29 30 30 30 30 30 30 30 30 30 30 31 31 31 31 31 31 31 31 31 31 31 31 31
17 18 18 18 18 19 19 19 20 20 20 21 21 21 22 22 22 22 23 23 23 24 24 25 25 25 26 26 26 27 27 27 28 28 28 29 29 29 29 29 30 30 30 30 30 30 30 30 30 30 30 30 30 30 30 30 30 30 30 30 30 30 29 29 29 29 29 30 30 30 30 30 30 30 31 31 31 31 31 31 31 31 31 31 31 31
18 18 18 18 19 19 19 20 20 20 21 21 21 21 22 22 22 22 23 23 23 24 24 24 25 25 26 26 26 27 27 27 28 28 28 29 29 29 29 29 30 30 30 30 30 30 30 30 30 30 30 30 30 30 30 30 30 30 30 30 29 29 30 29 29 29 29 29 30 30 30 30 30 31 31 31 31 31 31 31 30 30 30 30 30 30
18 19 19 19 19 19 20 20 20 21 21 21 21 21 22 22 22 23 23 23 23 24 24 24 25 25 26 26 26 27 27 27 28 28 28 29 29 29 29 29 30 30 30 30 30 31 31 31 31 31 31 31 31 31 31 30 30 30 30 30 30 30 30 30 30 29 29 30 30 30 30 30 31 31 31 31 31 31 31 30 30 30 30 30 29 29
19 19 19 20 20 20 20 20 21 21 21 21 21 21 22 22 22 23 23 23 24 24 24 24 25 25 26 26 26 27 27 27 28 28 28 29 29 29 29 29 30 30 30 30 30 31 31 31 31 31 31 31 31 31 31 31 30 30 30 30 30 31 31 30 30 30 30 30 30 30 30 30 30 31 31 31 31 31 31 31 31 30 30 29 29 29
20 20 20 20 20 21 21 21 21 21 21 21 21 22 22 22 22 23 23 23 24 24 24 25 25 25 26 26 26 27 27 27 28 28 28 29 29 29 29 30 30 30 30 30 30 30 31 31 31 31 31 31 31 31 31 31 31 31 31 31 31 31 30 30 30 30 30 30 30 30 30 30 30 31 31 31 31 31 31 31 31 30 30 29 29 29
20 20 21 21 21 21 21 21 21 21 21 21 21 22 22 22 22 23 23 23 24 24 24 25 25 26 26 26 27 27 27 28 28 28 28 29 29 29 29 30 30 30 30 30 30 31 31 31 31 31 31 31 31 31 32 32 31 31 31 31 31 31 31 31 30 30 30 30 30 30 30 30 30 31 31 31 31 31 30 30 30 30 30 30 29 29
21 21 21 21 21 21 21 21 21 21 21 21 22 22 22 22 22 23 23 23 24 24 24 25 25 25 26 26 27 27 28 28 28 28 29 29 29 29 30 30 30 31 31 31 31 31 31 31 32 32 32 32 32 32 32 32 32 32 32 32 32 31 32 31 31 31 31 30 30 30 30 30 31 31 31 31 31 30 30 30 30 30 30 29 29 29
21 21 21 21 21 21 21 21 21 22 22 22 22 22 22 23 23 23 23 24 24 24 24 25 25 25 26 26 27 27 28 28 28 28 29 29 29 30 30 30 31 31 31 31 32 32 32 32 32 32 32 32 33 33 33 33 33 33 32 32 32 32 31 31 31 31 30 30 31 30 30 30 31 31 31 31 31 31 30 30 30 30 29 29 29 29
22 22 22 22 22 22 22 22 22 22 22 22 23 23 23 23 23 23 24 24 24 24 25 25 25 25 26 26 26 27 27 28 28 29 29 29 29 30 30 30 31 31 31 32 32 32 32 33 33 33 33 33 33 33 33 33 33 33 33 32 32 31 31 31 31 31 30 30 30 30 30 30 30 31 31 31 31 31 31 30 30 30 30 29 29 29
23 23 23 23 23 23 23 23 23 23 23 23 23 23 23 24 24 24 24 24 24 25 25 25 25 25 26 26 26 27 27 27 28 28 29 29 30 30 30 30 31 31 31 32 32 32 32 33 33 33 33 33 33 33 33 33 33 33 32 32 32 31 31 31 31 31 30 30 30 30 30 30 31 31 31 31 31 31 31 31 31 30 30 30 29 29
24 24 24 24 24 23 24 23 23 24 24 24 24 24 24 24 24 24 25 25 25 25 25 25 26 26 26 26 26 27 27 27 28 28 29 29 29 30 30 30 31 31 31 31 32 32 32 32 33 33 33 33 33 33 33 33 33 32 32 32 31 31 31 31 31 31 30 30 31 31 31 31 31 32 32 32 32 32 32 32 31 31 31 30 30 30
25 25 25 24 24 24 24 24 24 24 24 25 25 25 25 25 25 25 25 25 25 25 26 26 26 26 26 27 27 27 27 27 28 28 28 29 29 29 30 30 31 31 31 31 31 32 32 32 32 32 32 32 32 32 32 32 32 32 32 32 31 31 31 31 31 31 31 31 32 32 32 32 32 32 32 33 33 33 33 33 32 32 31 31 31 31
25 25 25 25 25 25 25 25 25 25 25 25 25 25 25 25 25 25 26 26 26 26 26 26 27 27 27 27 27 27 27 28 28 28 28 28 29 29 29 30 30 30 31 31 31 31 31 31 31 31 32 32 32 32 31 31 31 31 31 32 32 32 32 32 32 32 32 33 33 33 33 33 33 33 33 33 33 33 33 33 33 32 32 31 31 31
Wind_Direction
244 245 246 245 244 242 242 242 243 243 243 243 242 242 242 241 241 240 239 239 240 240 241 242 242 243 243 244 244 245 247 249 251 252 253 254 254 254 254 254 255 255 254 254 253 253 252 251 251 250 250 249 249 249 249 249 249 250 250 250 250 251 251 251 252 252 252 252 253 253 253 254 254 254 255 255 255 256 256 256 256 256 256 256 256 256
243 244 244 244 243 242 241 242 243 243 243 243 243 243 242 242 241 240 239 238 238 238 239 240 241 242 242 243 245 246 247 249 250 251 252 252 253 253 254 254 254 254 254 253 253 252 252 251 250 250 250 249 249 249 249 249 250 250 250 250 251 251 251 251 252 252 252 252 253 253 253 254 254 254 255 255 256 256 256 257 257 257 257 257 257 257
242 242 242 243 243 242 241 241 242 243 243 244 244 244 244 243 242 241 240 239 238 237 238 238 239 240 242 243 245 246 248 249 249 250 250 250 251 252 253 253 254 254 253 253 252 252 251 251 251 250 250 250 250 250 250 250 250 250 251 251 251 251 251 251 251 251 252 252 252 253 253 253 254 254 255 255 256 256 257 257 257 258 258 258 258 258
241 241 240 241 241 241 241 241 242 242 243 244 244 244 244 243 242 241 240 239 238 238 237 237 238 239 241 243 245 246 247 248 248 248 248 249 250 251 252 253 253 253 253 252 252 252 252 252 252 251 251 251 251 251 250 250 250 251 251 251 251 251 251 251 251 251 252 252 252 253 253 254 254 255 255 256 256 257 257 258 258 258 259 259 259 259
241 240 240 239 240 240 241 241 242 242 243 243 243 243 243 242 242 241 240 239 239 239 239 238 238 239 241 243 245 246 247 247 247 247 248 249 250 251 252 252 252 252 251 251 251 251 252 252 253 252 252 251 251 251 250 250 250 250 250 250 251 251 251 251 252 252 252 253 253 254 254 255 255 256 256 257 257 258 258 259 259 259 260 260 260 260
241 240 240 239 239 239 240 241 241 242 242 242 242 242 242 241 240 239 239 239 239 240 240 240 241 241 242 243 245 246 246 246 247 247 248 249 251 252 253 252 252 251 251 251 251 251 252 253 253 253 252 251 251 250 249 249 249 249 249 250 250 251 252 252 253 254 254 255 255 256 256 257 257 258 258 259 259 259 260 260 260 260 261 261 261 261
241 241 240 239 239 239 239 240 240 240 241 241 241 241 240 240 239 239 238 239 239 240 241 242 243 244 244 245 245 246 247 247 248 248 249 251 252 253 253 253 252 251 251 250 251 251 251 252 252 251 251 250 249 248 248 248 248 248 249 250 251 252 253 254 254 255 256 256 257 258 258 259 259 260 260 260 261 261 261 261 262 262 262 262 262 262
241 240 240 239 239 239 239 239 240 240 240 241 241 240 240 240 240 239 239 239 239 240 240 242 244 245 246 245 245 246 247 248 249 250 251 253 253 254 253 252 252 251 251 251 251 251 250 250 250 250 249 249 248 248 247 247 248 249 250 251 252 254 255 256 256 257 257 258 258 259 259 260 261 261 261 262 262 262 262 263 263 263 263 263 263 263
241 240 239 239 238 238 239 239 240 240 241 241 241 241 240 240 240 240 239 239 240 240 240 241 242 244 245 245 245 246 247 249 251 252 253 254 254 254 253 252 251 251 251 251 251 250 250 249 249 248 248 248 247 247 248 248 249 250 252 253 255 256 257 258 258 259 259 259 259 260 260 261 261 262 262 263 263 263 263 264 264 264 264 264 263 263
241 240 239 239 238 238 238 239 240 241 241 241 242 242 241 240 240 240 239 239 240 240 240 239 240 241 243 244 245 246 248 250 252 253 254 255 254 254 253 252 251 250 250 250 250 249 249 248 247 247 247 247 247 248 248 249 251 252 254 256 257 258 259 260 260 260 260 260 260 260 261 261 262 262 263 263 264 264 264 264 264 264 264 264 264 264
241 240 239 239 238 238 238 239 239 240 241 241 242 242 242 241 240 239 238 239 239 240 240 239 239 240 241 243 245 247 249 251 252 253 254 254 254 253 252 251 251 250 250 249 248 248 248 247 246 245 245 246 247 248 250 251 253 254 256 258 259 260 260 260 260 260 260 260 260 261 261 261 262 263 263 264 264 264 265 265 265 265 265 265 265 265
240 240 239 239 238 239 239 240 240 240 241 241 242 243 243 242 241 239 238 238 238 239 239 240 240 241 242 243 245 247 249 250 252 253 254 253 253 252 251 251 251 251 250 249 248 248 247 246 245 245 245 246 248 249 251 252 254 256 258 259 260 261 261 261 260 260 260 260 261 261 261 262 262 263 263 264 264 265 265 265 266 266 266 266 266 266
239 239 239 239 239 239 240 241 241 241 241 242 243 243 243 242 241 239 238 238 238 238 239 239 240 241 243 244 246 248 249 250 251 252 253 252 252 251 250 251 251 251 251 249 249 248 247 246 246 246 247 248 249 250 252 254 255 257 259 260 261 261 261 260 260 260 260 260 261 261 262 262 263 263 264 265 265 265 266 266 266 266 267 267 267 267
239 239 239 238 239 240 241 242 242 242 243 243 243 243 243 242 241 239 238 237 237 238 239 239 240 242 244 246 248 249 249 250 251 252 252 251 251 250 250 250 250 250 250 249 248 248 248 247 247 247 248 249 250 252 253 255 257 259 260 261 261 260 260 260 260 260 260 260 261 261 262 262 263 264 265 265 266 266 266 267 267 267 267 267 267 267
240 240 240 239 240 241 242 242 242 242 243 243 242 242 242 241 240 239 238 237 237 237 237 238 239 240 243 245 248 249 250 250 251 251 252 251 250 250 249 249 250 249 249 248 248 247 248 248 248 248 249 251 252 253 255 257 259 260 260 260 260 260 260 260 260 260 260 261 261 262 262 263 264 265 265 266 266 267 267 267 268 268 268 268 268 268
240 241 241 241 241 241 241 241 241 241 242 242 241 240 239 239 238 238 238 237 237 236 236 235 236 238 241 244 247 248 249 250 251 251 251 251 250 250 249 249 249 249 248 248 247 247 248 248 249 250 251 252 253 255 257 258 259 260 259 259 259 259 259 260 260 261 261 261 262 262 263 264 265 266 266 267 267 268 268 269 269 269 269 269 269 269
241 241 241 241 241 241 241 240 240 240 240 240 240 239 237 236 236 237 237 237 236 235 234 234 235 237 240 243 246 248 249 250 251 251 251 250 250 249 249 249 249 249 248 248 247 247 247 248 249 250 251 253 255 257 258 258 258 258 258 258 258 259 260 260 261 261 262 262 263 264 265 265 266 267 267 268 268 269 269 270 270 270 270 270 270 270
241 241 241 241 240 240 239 238 238 238 238 238 238 237 236 236 235 236 236 236 235 234 233 234 236 238 240 242 245 247 249 250 250 250 250 249 249 249 249 248 249 249 249 248 247 246 247 248 249 250 252 254 255 256 257 256 256 256 257 258 259 260 260 261 261 262 262 263 264 265 266 266 267 267 268 268 269 269 270 270 271 271 272 272 271 271
240 240 240 240 239 238 237 237 236 236 236 236 236 236 235 235 235 235 235 235 235 234 234 236 237 239 240 242 245 247 249 249 249 249 249 248 248 249 249 249 249 249 249 248 246 246 246 247 249 250 252 253 254 254 254 255 256 257 258 259 260 260 261 262 263 264 265 265 266 266 267 267 267 268 268 269 269 270 270 271 271 272 272 273 273 272
239 239 239 238 238 237 236 235 235 235 235 234 234 234 234 234 234 235 235 236 236 236 237 238 240 241 242 244 245 247 248 249 249 249 249 248 248 249 249 250 250 249 249 247 246 245 246 247 249 250 251 252 252 253 254 255 256 257 258 259 261 262 263 264 265 266 266 267 267 268 268 268 269 269 269 270 270 270 271 271 272 273 273 274 274 274
237 238 238 237 236 235 234 234 234 234 233 233 233 233 233 233 234 234 235 236 237 238 239 240 242 243 244 245 246 247 248 248 248 248 248 248 249 249 250 250 249 249 248 246 245 245 246 247 249 250 251 251 252 253 255 256 257 258 259 260 261 263 264 265 265 266 267 268 268 269 270 270 270 270 270 271 271 271 272 272 273 274 274 275 275 275
236 236 236 236 235 235 234 234 233 233 233 233 233 233 233 233 234 234 235 236 237 239 240 242 243 245 245 246 246 247 247 247 247 247 248 248 249 250 251 250 249 248 247 246 246 246 246 247 249 250 251 252 253 254 256 257 258 259 260 261 262 263 264 265 266 267 267 268 269 270 270 271 271 271 272 272 272 273 273 273 274 274 275 276 276 276
236 236 236 236 235 235 234 234 233 233 233 234 234 234 234 235 235 236 237 238 239 241 242 244 244 245 245 246 246 247 247 247 247 247 247 248 249 250 251 250 248 247 246 245 246 246 247 248 249 251 252 253 254 255 256 257 258 259 260 261 262 263 264 265 266 267 268 269 269 270 271 271 271 272 272 273 273 274 274 274 275 275 276 276 276 276
237 236 236 236 235 235 234 234 234 234 234 235 235 236 236 237 237 238 239 240 242 243 244 245 245 246 247 247 247 246 246 246 246 246 247 247 248 250 250 249 247 246 245 245 246 246 247 248 249 251 252 253 254 255 256 257 258 258 260 261 262 263 264 265 266 267 268 269 269 270 271 271 272 272 273 273 274 274 275 275 275 275 276 276 276 276
237 236 236 235 235 235 234 234 235 235 236 236 237 237 238 238 239 240 241 242 243 244 245 246 247 247 246 246 245 244 245 245 245 245 246 247 248 249 249 248 247 246 246 246 246 246 247 248 249 250 251 253 253 254 255 256 257 258 259 260 262 263 263 264 265 267 268 269 270 270 271 272 272 273 273 274 274 275 275 275 275 275 275 276 276 276
238 237 235 235 234 234 234 235 236 236 237 237 237 238 238 239 239 240 241 242 243 244 245 245 245 245 245 244 244 243 243 244 245 245 246 247 248 248 248 247 247 247 247 247 247 247 247 248 249 250 250 251 252 253 254 255 256 257 258 260 261 262 263 264 265 266 268 269 270 270 271 272 272 273 274 274 275 275 275 275 275 275 276 276 276 276
239 237 236 235 234 234 234 235 236 237 237 238 238 238 238 238 238 238 238 239 239 240 241 242 242 243 243 243 242 242 243 244 245 246 247 247 247 247 248 248 248 248 248 248 248 248 248 248 249 249 249 250 251 252 254 255 256 257 258 259 260 261 262 264 265 267 268 269 270 270 271 272 273 273 274 274 275 275 275 276 276 276 276 276 276 276
240 238 237 236 235 235 235 235 236 236 237 237 237 238 238 238 237 237 237 236 236 237 237 238 239 240 241 241 241 241 243 244 246 248 248 248 247 247 248 249 249 250 250 250 250 249 249 249 249 249 249 250 251 252 254 255 257 258 259 260 261 262 263 264 266 267 268 269 269 270 271 272 272 273 274 274 275 275 276 276 277 277 277 277 277 277
241 240 239 238 237 237 236 236 235 235 235 235 236 237 238 238 237 237 237 236 235 235 236 236 237 238 239 240 241 242 243 245 248 249 249 248 248 248 249 250 251 251 252 252 251 250 250 249 249 249 249 250 251 253 254 256 257 259 260 261 262 263 264 265 266 267 268 269 269 270 271 271 272 273 273 274 275 275 276 277 277 277 277 277 277 277
242 241 240 239 238 237 236 235 235 234 234 235 236 237 238 238 238 238 238 237 236 235 236 236 237 238 239 240 241 242 244 247 249 249 249 249 248 249 250 250 251 252 252 252 252 251 251 250 249 249 249 250 252 253 255 257 259 260 261 262 263 264 265 266 267 267 268 268 269 270 270 271 272 272 273 274 274 275 275 276 277 277 277 277 277 277
240 239 238 238 237 237 236 235 235 234 235 236 237 238 239 239 239 239 239 239 238 237 238 238 239 240 240 241 242 243 245 247 249 250 249 249 248 249 250 251 252 252 252 252 252 252 252 251 250 250 251 252 254 255 256 258 260 261 263 263 264 265 266 267 267 268 268 269 269 270 270 271 271 272 273 273 274 274 275 276 277 277 277 277 277 278
237 236 236 236 236 236 235 235 235 235 236 236 237 238 239 240 241 241 241 240 240 240 240 241 241 242 242 243 243 244 245 248 250 250 250 249 249 250 250 251 252 252 252 251 251 251 251 251 252 253 254 255 256 257 258 259 261 262 263 264 264 265 266 267 268 268 269 269 270 270 271 271 272 272 272 273 273 274 275 276 277 277 277 277 278 278
236 235 235 235 235 235 235 235 235 236 237 237 238 239 240 241 242 243 243 243 242 242 242 243 243 244 244 245 245 246 247 248 250 251 251 251 251 251 251 252 253 253 253 253 252 251 251 252 253 255 256 256 257 258 259 260 261 262 263 263 264 265 266 268 269 269 270 270 271 271 272 272 272 273 273 273 274 274 275 276 277 277 278 277 278 279
236 235 235 235 235 235 235 236 236 237 238 239 240 241 242 243 244 244 245 245 244 244 244 244 245 246 246 247 248 248 248 249 251 252 253 252 252 252 253 253 253 254 254 254 254 253 253 253 254 255 256 257 257 258 259 260 261 262 263 263 264 265 266 268 269 269 270 271 271 272 272 273 273 273 274 274 274 275 275 276 277 278 278 278 278 279
237 236 235 235 235 236 236 237 238 239 240 241 242 243 243 244 245 245 246 246 246 246 245 245 245 246 247 248 249 249 250 250 252 253 253 253 253 253 253 254 254 254 255 255 255 255 255 255 255 256 257 257 258 258 259 259 260 261 262 263 264 265 266 267 268 269 270 270 271 271 272 273 273 274 274 274 275 275 276 276 277 278 278 279 279 279
236 236 236 236 236 236 237 238 239 240 241 242 243 244 244 245 245 245 246 246 246 246 246 246 246 247 247 248 249 250 251 251 252 253 253 253 253 253 254 254 254 254 255 255 255 255 256 256 256 257 257 258 258 259 259 260 261 261 262 263 264 265 266 267 268 268 269 269 270 271 271 272 273 273 274 275 275 276 276 277 277 278 278 279 280 280
236 236 237 238 238 238 238 239 240 241 242 243 244 244 245 245 245 245 246 246 246 247 247 247 248 248 248 249 249 250 251 252 253 253 253 253 253 253 254 254 254 254 255 255 255 256 256 256 257 257 258 258 258 259 260 261 262 262 263 264 264 265 266 267 268 268 268 269 270 270 271 272 272 273 273 274 275 275 276 276 277 277 278 279 279 280
237 238 238 239 240 240 241 241 242 243 244 244 245 245 246 246 246 246 247 247 247 247 248 248 249 250 250 251 251 251 252 253 253 254 254 254 254 254 254 254 255 255 255 255 255 256 256 256 257 257 258 258 258 259 260 262 263 263 264 264 265 266 266 267 268 268 269 269 270 271 271 272 272 272 273 273 274 274 274 274 275 276 277 278 279 279
239 240 240 241 242 242 243 244 244 245 245 246 246 247 247 247 248 248 248 249 249 249 249 249 250 250 251 252 252 253 253 254 254 254 255 255 254 254 254 255 255 255 255 255 255 256 256 256 257 257 258 258 259 260 260 261 262 263 264 265 265 265 266 267 268 268 269 270 271 271 272 272 272 272 273 273 273 273 273 273 274 275 276 277 278 278
241 241 242 243 243 244 244 245 246 246 246 247 248 248 248 248 249 250 250 250 251 251 251 251 251 251 252 252 253 253 254 254 254 255 255 255 255 254 255 255 255 255 255 255 256 256 256 256 257 257 258 258 259 260 260 261 262 263 264 265 265 266 266 267 268 268 269 270 271 272 272 272 273 273 273 273 273 273 273 273 274 274 275 276 276 277
243 243 244 244 245 245 246 246 247 247 247 248 248 249 249 250 251 251 252 252 252 252 252 253 253 253 252 253 253 254 254 254 255 255 255 255 255 255 255 255 255 256 256 256 256 256 256 256 257 257 258 258 259 260 260 261 262 263 264 264 265 265 266 267 268 268 269 270 270 271 272 273 273 273 273 273 273 273 273 273 273 274 275 275 276 277
244 245 245 246 246 247 247 247 248 248 249 249 249 250 251 252 252 253 253 254 254 254 254 254 255 255 255 255 255 255 255 256 256 256 256 256 256 255 255 255 255 256 256 256 256 256 256 257 257 258 258 259 259 260 260 261 261 262 263 263 264 265 266 267 267 268 269 270 270 271 272 272 272 273 273 273 273 273 273 273 273 273 274 274 275 276
245 246 246 247 247 248 248 249 249 249 250 250 251 252 252 253 254 254 255 255 255 256 256 256 256 257 257 256 256 256 256 257 257 257 257 257 257 256 256 255 256 256 256 257 257 257 257 257 257 258 258 259 259 260 260 261 261 262 262 263 264 265 266 267 267 268 269 269 270 270 271 271 271 272 272 272 272 273 273 273 273 273 273 273 274 275
246 246 247 248 248 249 249 250 250 251 251 251 252 253 253 254 255 255 256 256 257 257 258 258 258 258 258 258 258 258 258 258 258 258 258 258 258 257 257 256 257 257 257 257 258 258 258 258 258 258 258 259 259 260 260 261 261 262 262 263 264 265 265 267 268 269 269 269 270 270 270 271 271 272 272 272 271 271 272 271 271 272 272 273 274 274
247 248 248 249 249 250 251 251 251 252 252 252 253 254 254 255 256 256 257 257 258 259 259 259 260 260 260 260 260 260 260 259 259 259 259 259 259 258 258 258 258 257 257 257 258 258 259 259 259 259 259 259 259 260 260 261 262 262 263 264 264 265 265 266 267 268 268 269 269 269 270 271 271 271 271 271 270 270 270 270 270 270 271 272 272 273
249 249 249 250 250 251 251 252 253 253 253 254 254 255 255 256 256 257 257 258 259 259 260 260 260 261 261 261 261 261 261 261 261 260 260 260 260 260 260 259 259 259 258 258 258 258 258 259 259 260 260 260 260 260 261 261 262 263 263 264 265 265 265 266 266 267 267 268 269 270 270 271 271 271 271 271 270 270 270 270 270 270 270 271 271 272
250 251 251 251 251 251 252 253 254 254 255 255 255 256 256 257 257 258 258 258 259 259 260 260 260 261 261 262 262 262 262 262 262 262 261 261 261 261 261 261 261 260 260 259 259 259 259 259 259 260 261 261 261 261 262 262 262 263 264 264 264 265 265 266 266 267 267 268 269 270 271 271 271 271 271 271 271 271 270 270 270 270 270 270 270 271
252 252 252 252 252 253 253 254 254 255 256 256 256 257 257 258 258 259 259 259 259 260 260 260 260 261 261 261 262 262 263 263 263 263 263 263 262 262 262 261 261 261 261 261 261 261 260 260 260 260 260 261 261 262 262 262 263 263 263 264 264 265 265 266 267 267 268 269 269 270 271 271 271 272 272 272 272 271 271 271 271 270 269 269 269 270
253 253 253 253 254 254 254 255 255 256 256 257 257 257 258 258 259 260 260 260 260 260 260 260 261 261 261 262 262 262 263 263 263 263 263 263 263 263 263 263 262 262 262 262 262 261 261 261 261 261 260 261 261 262 262 263 263 263 264 264 265 265 266 267 267 268 269 269 269 269 270 270 271 271 272 272 272 271 271 271 271 270 270 269 269 269
254 254 254 254 254 255 255 255 256 256 257 257 257 258 258 258 259 259 260 260 261 261 261 261 261 261 262 262 262 262 263 263 263 263 263 263 263 263 264 264 264 264 264 263 263 263 263 262 262 262 261 261 261 262 262 263 263 264 264 265 265 266 266 267 267 268 268 268 269 269 270 271 271 271 271 271 271 271 271 271 270 270 270 270 269 269
255 255 255 255 255 255 256 256 256 257 257 258 258 258 258 259 259 259 260 261 261 262 262 262 262 262 262 262 262 262 263 263 263 263 264 263 263 263 264 264 264 265 265 265 265 264 264 264 264 263 263 262 262 262 262 263 264 265 265 265 265 266 266 267 267 267 268 268 269 270 270 271 271 271 271 271 271 271 270 270 270 270 270 270 270 270